Regional Weather Roundup
Issued by NWS

Home | Current Version | Previous Version | Graphics & Text | Print | Product List | Glossary On
Versions: 1 2 3 4 5 6 7 8 9 10 11 12 13 14 15 16 17 18 19 20 21 22 23 24 25 26 27
000
ASUS45 KTFX 280710
RWRMT
MONTANA REGIONAL WEATHER ROUNDUP
NATIONAL WEATHER SERVICE GREAT FALLS MT
100 AM MDT SUN MAY 28 2017

NOTE: "FAIR" INDICATES FEW OR NO CLOUDS BELOW 12000 FEET WITH NO
SIGNIFICANT WEATHER AND/OR OBSTRUCTIONS TO VISIBILITY.

MTZ001>007-043-280800-
WEST OF THE DIVIDE

CITY           SKY/WX    TMP DP  RH WIND       PRES   REMARKS
KALISPELL      PTCLDY    49  44  83 CALM      30.14R
MISSOULA       CLEAR     52  43  71 CALM      30.20R
BUTTE          CLEAR     43  34  70 SE3       30.28R
MULLAN PASS    CLEAR     52  36  54 NW5       30.29S
ANACONDA         N/A     48  34  57 SW7       30.26R
DEER LODGE       N/A     45  36  70 CALM      30.27R
EUREKA           N/A     54  43  66 SE5       30.12R
HAMILTON         N/A     52  37  58 S5        30.22R
PLAINS           N/A     51  42  71 CALM      30.16R
RONAN            N/A     50  41  71 CALM      30.19R
$$

MTZ008-052>055-280800-
SOUTHWEST MONTANA

CITY           SKY/WX    TMP DP  RH WIND       PRES   REMARKS
BOZEMAN        CLEAR     48  38  68 SE8       30.23R
DILLON         CLEAR     43  35  73 S6        30.25R
ENNIS          CLEAR     41  34  75 N5        30.31R
THREE FORKS      N/A     44  39  82 CALM      30.19R
TWIN BRIDGES     N/A     45  33  62 CALM      30.21R
$$

MTZ009-010-012-014-046-048-049-054-280800-
EAST SLOPES AND CENTRAL MONTANA

CITY           SKY/WX    TMP DP  RH WIND       PRES   REMARKS
CUT BANK       PTCLDY    58  40  51 N16       30.16R
GREAT FALLS    CLOUDY    53  41  63 SW8       30.17R
MALMSTROM AFB  PTCLDY    51  43  75 E5        30.16R
HELENA         CLEAR     58  39  49 CALM      30.19R
CHOTEAU          N/A     52  37  58 W6        30.19R
CONRAD           N/A     57  51  80 W8        30.17R
$$

MTZ011-013-016-021-045-047-050-051-280800-
NORTH CENTRAL MONTANA

CITY           SKY/WX    TMP DP  RH WIND       PRES   REMARKS
HAVRE          PTCLDY    49  43  80 SW10      30.08R
LEWISTOWN      CLOUDY    52  46  80 S10       30.17F
N BAR RANCH    MOCLDY    48  45  87 W10       30.21F
CHINOOK          N/A     48  45  87 CALM      30.07R
FORT BENTON      N/A     61  43  51 CALM      30.10S
$$

MTZ017>020-022>027-061-062-280800-
NORTHEAST MONTANA

CITY           SKY/WX    TMP DP  RH WIND       PRES   REMARKS
GLASGOW        CLOUDY    59  40  49 NW6       30.03R
JORDAN           N/A     58  42  55 W9        30.04R
SIDNEY         PTCLDY    51  37  58 NW13      29.96R
WOLF POINT     PTCLDY    59  35  40 N12       30.00R
MALTA          CLEAR     50  46  87 W7        30.04S
PLENTYWOOD       N/A     48  32  53 NW7       29.96S
POPLAR           N/A     52  36  54 N7        30.00R
SCOBEY           N/A     42  28  58 CALM      29.99R
$$

MTZ028>42-056>058-280800-
SOUTHCENTRAL AND SOUTHEAST MONTANA

CITY           SKY/WX    TMP DP  RH WIND       PRES   REMARKS
BAKER          PTCLDY    51  39  63 W10       29.99F
BILLINGS       CLOUDY    57  39  51 N12       30.16R
LIVINGSTON     CLEAR     45  38  76 NW5       30.21R
MILES CITY     CLOUDY    58  34  40 NW9       30.03R
BIG TIMBER     CLOUDY    52  36  54 SW12      30.22R
EKALAKA          N/A     54  39  56 SW8       30.01R
FORSYTH          N/A     64  37  36 NW12G20   30.06S
LAUREL           N/A     52  37  56 CALM      30.12F
ROUNDUP          N/A     57  43  59 NW6       30.07R
$$

REGIONAL REPORTS...DAKOTAS

CITY           SKY/WX    TMP DP  RH WIND       PRES   REMARKS
WILLISTON      CLEAR     50  36  58 NE3       29.94R
MINOT          CLOUDY    52  44  74 SW9       29.84S
DICKINSON      PTCLDY    45  39  79 NW8       29.92S
BEACH            N/A     50  39  66 NW8       30.00R
CROSBY           N/A     48  39  71 W12       29.93R
TIOGA            N/A     45  45 100 W7        29.93R
WATFORD CITY     N/A     46  37  71 SW6       29.93S
BISMARCK       CLEAR     48  42  80 CALM      29.87R
GRAND FORKS    CLOUDY    53  50  89 CALM      29.73S
FARGO          PTCLDY    52  47  83 W9        29.76F
BUFFALO SD       N/A     53  45  74 W12       29.93S
RAPID CITY     CLEAR     53  39  59 W9        30.04S
$$

REGIONAL REPORTS...WYOMING/IDAHO/WASHINGTON

CITY           SKY/WX    TMP DP  RH WIND       PRES   REMARKS
GILLETTE       CLEAR     50  40  68 W13       30.14R
SHERIDAN       CLEAR     52  39  61 W10       30.14S
BUFFALO WY     PTCLDY    52  37  56 W10       30.18F
CODY           CLEAR     51  35  54 SW8       30.24S
YELLOWSTONE LA   N/A     30  29  96 CALM      30.40R
IDAHO FALLS    CLEAR     46  43  89 CALM      30.27S
SALMON         CLEAR     46  37  71 CALM      30.22R
BOISE          CLEAR     58  41  53 SE7       30.16R
SPOKANE        CLEAR     63  44  50 SW5       30.14R
$$

REGIONAL REPORTS...ALBERTA

CITY           SKY/WX    TMP DP  RH WIND       PRES   REMARKS
EDMONTON       CLEAR     52  34  50 N7        30.15R
CALGARY        MOCLDY    59  41  51 N5        30.18R
LETHBRIDGE     MOCLDY    55  48  76 W6        30.13R
MEDICINE HAT   CLEAR     52  45  76 S6        30.07R
WATERTON GATE    N/A     43  39  87 SW2         N/A
$$

REGIONAL REPORTS...SASKATCHEWAN

CITY           SKY/WX    TMP DP  RH WIND       PRES   REMARKS
SWIFT CURRENT  CLEAR     48  36  61 SW12      30.01R
REGINA         MOCLDY    48  36  61 NW9       29.94R
SASKATOON      MOCLDY    52  41  66 NW9       29.96R
CYPRESS HILLS    N/A     50  36  57 NW2         N/A
VAL MARIE        N/A     52  43  71 NW8         N/A
ROCKGLEN         N/A     50  30  46 CALM        N/A
ASSINIBOIA       N/A     52  37  58 NW7         N/A
$$




USA.gov is the U.S. government's official web portal to all federal, state and local government web resources and services.